Weather History for Huntsville Madison, AL

Change the Weather History Date:

Tuesday, April 29, 2014

  Actual Average (KHSV) Record (KHSV)
Temperature  
Mean Temperature 70 °F 66 °F  
Max Temperature 80 °F 77 °F 92 °F (1915)
Min Temperature 59 °F 54 °F 35 °F (1928)
Degree Days  
Heating Degree Days 0 2  
Month to date heating degree days 152  
Since 1 July heating degree days 2972  
Cooling Degree Days 4 3  
Month to date cooling degree days 55  
Year to date cooling degree days 69  
Growing Degree Days 20 (Base 50)    
Moisture  
Dew Point 57 °F    
Average Humidity 73    
Maximum Humidity 94    
Minimum Humidity 39    
Precipitation  
Precipitation 0.39 in 0.14 in 3.32 in (1963)
Month to date precipitation 4.17  
Year to date precipitation 19.11  
Snow  
Snow 0.00 in - - ()
Month to date snowfall  
Since 1 July snowfall  
Snow Depth -    
Sea Level Pressure  
Sea Level Pressure 29.74 in    
Wind  
Wind Speed 5 mph (South)    
Max Wind Speed 14 mph    
Max Gust Speed 20 mph    
Visibility 8 miles    
Events Rain , Thunderstorm    
T = Trace of Precipitation, MM = Missing Value Source: NWS Daily Summary

Daily Weather History Graph

Daily Weather History Graph

Search for Another Location

Airport:

Trip Planner

Search our weather history database for the weather conditions in past years. The results will help you decide how hot, cold, wet, or windy it might be!

Date:

Astronomy

Apr. 29, 2014 Rise Set
Actual Time 5:57 AM CDT 7:29 PM CDT
Civil Twilight 5:30 AM CDT 7:56 PM CDT
Nautical Twilight 4:58 AM CDT 8:29 PM CDT
Astronomical Twilight 4:24 AM CDT 9:03 PM CDT
Moon 6:15 AM CDT (4/29) 8:08 PM CDT (4/29)
Length of Visible Light 14h 25m
Length of Day
13h 32m
New Moon, 0% of the Moon is Illuminated
Apr 29
New Moon
May 6
First Quarter
May 14
Full
May 21
Last Quarter
May 28
New

Hourly Weather History & Observations

Time (CDT) Temp. Heat Index Dew Point Humidity Pressure Visibility Wind Dir Wind Speed Gust Speed Precip Events Conditions
12:15 AM 66.2 °F - 60.8 °F 83% 29.68 in 7.0 mi SW 8.1 mph - N/A Rain Rain
12:35 AM 66.2 °F - 60.8 °F 83% 29.68 in 5.0 mi SSW 10.4 mph - 0.06 in Rain Rain
12:55 AM 64.4 °F - 60.8 °F 88% 29.66 in 2.5 mi WSW 8.1 mph - 0.26 in Rain Heavy Rain
1:15 AM 64.4 °F - 60.8 °F 88% 29.66 in 5.0 mi Calm Calm - 0.05 in Rain Rain
1:35 AM 64.4 °F - 60.8 °F 88% 29.66 in 7.0 mi SSW 4.6 mph - 0.05 in Rain Rain
1:55 AM 64.4 °F - 60.8 °F 88% 29.65 in 10.0 mi South 4.6 mph - 0.05 in   Mostly Cloudy
2:15 AM 64.4 °F - 60.8 °F 88% 29.65 in 10.0 mi SSW 6.9 mph - N/A   Mostly Cloudy
2:35 AM 62.6 °F - 60.8 °F 94% 29.65 in 10.0 mi SSW 8.1 mph - N/A   Scattered Clouds
2:55 AM 62.6 °F - 59.0 °F 88% 29.65 in 10.0 mi Calm Calm - N/A   Scattered Clouds
3:15 AM 62.6 °F - 59.0 °F 88% 29.66 in 10.0 mi Calm Calm - N/A   Clear
3:35 AM 62.6 °F - 59.0 °F 88% 29.67 in 10.0 mi Calm Calm - N/A   Clear
4:15 AM 60.8 °F - 57.2 °F 88% 29.67 in - Calm Calm - N/A   Unknown
4:35 AM 62.6 °F - 59.0 °F 88% 29.69 in - SW 5.8 mph - N/A   Unknown
4:55 AM 62.6 °F - 59.0 °F 88% 29.70 in - SSW 3.5 mph - N/A   Unknown
5:15 AM 62.6 °F - 59.0 °F 88% 29.71 in - South 8.1 mph - N/A   Overcast
5:35 AM 62.6 °F - 59.0 °F 88% 29.71 in - Calm Calm - N/A   Overcast
5:55 AM 62.6 °F - 59.0 °F 88% 29.71 in - South 4.6 mph - N/A   Overcast
6:15 AM 62.6 °F - 59.0 °F 88% 29.71 in - South 4.6 mph - N/A   Overcast
6:35 AM 62.6 °F - 60.8 °F 94% 29.71 in - Calm Calm - N/A   Unknown
6:55 AM 62.6 °F - 60.8 °F 94% 29.71 in - Calm Calm - N/A   Unknown
7:15 AM 62.6 °F - 60.8 °F 94% 29.71 in - Calm Calm - N/A   Mostly Cloudy
7:35 AM 64.4 °F - 60.8 °F 88% 29.73 in - Calm Calm - N/A   Overcast
7:55 AM 64.4 °F - 60.8 °F 88% 29.74 in - Calm Calm - N/A   Overcast
8:15 AM 64.4 °F - 60.8 °F 88% 29.74 in - Calm Calm - N/A   Unknown
8:35 AM 64.4 °F - 60.8 °F 88% 29.74 in - Calm Calm - N/A   Unknown
8:55 AM 66.2 °F - 60.8 °F 83% 29.74 in - Calm Calm - N/A   Clear
9:15 AM 68.0 °F - 59.0 °F 73% 29.74 in - Calm Calm - N/A   Clear
9:35 AM 69.8 °F - 59.0 °F 68% 29.73 in - Calm Calm - N/A   Scattered Clouds
9:55 AM 69.8 °F - 59.0 °F 68% 29.74 in - South 6.9 mph - N/A   Scattered Clouds
10:15 AM 69.8 °F - 59.0 °F 68% 29.75 in 10.0 mi SSW 9.2 mph - N/A   Mostly Cloudy
10:35 AM 69.8 °F - 59.0 °F 68% 29.76 in - South 11.5 mph - N/A   Scattered Clouds
10:55 AM 71.6 °F - 55.4 °F 57% 29.76 in - South 10.4 mph - N/A   Scattered Clouds
11:15 AM 71.6 °F - 55.4 °F 57% 29.75 in - South 5.8 mph 9.2 mph N/A   Clear
11:35 AM 73.4 °F - 57.2 °F 57% 29.76 in - South 10.4 mph - N/A   Scattered Clouds
11:55 AM 75.2 °F - 55.4 °F 50% 29.76 in - South 10.4 mph - N/A   Scattered Clouds
12:15 PM 75.2 °F - 55.4 °F 50% 29.76 in - South 8.1 mph - N/A   Scattered Clouds
12:35 PM 77.0 °F - 55.4 °F 47% 29.77 in - South 11.5 mph - N/A   Clear
12:55 PM 77.0 °F - 55.4 °F 47% 29.76 in - South 10.4 mph - N/A   Clear
1:15 PM 77.0 °F - 55.4 °F 47% 29.76 in - SSW 11.5 mph - N/A   Clear
1:35 PM 78.8 °F - 55.4 °F 44% 29.74 in - South 8.1 mph - N/A   Clear
1:55 PM 78.8 °F - 51.8 °F 39% 29.74 in - SSW 9.2 mph 13.8 mph N/A   Clear
2:15 PM 78.8 °F - 51.8 °F 39% 29.72 in - South 5.8 mph 16.1 mph N/A   Clear
2:35 PM 80.6 °F 80.3 °F 53.6 °F 39% 29.73 in - South 8.1 mph 16.1 mph N/A   Clear
2:55 PM 80.6 °F 80.3 °F 53.6 °F 39% 29.72 in - SW 12.7 mph 16.1 mph N/A   Scattered Clouds
3:15 PM 78.8 °F - 53.6 °F 42% 29.71 in - SSW 8.1 mph - N/A   Scattered Clouds
3:35 PM 78.8 °F - 53.6 °F 42% 29.72 in - South 9.2 mph 16.1 mph N/A   Scattered Clouds
3:55 PM 78.8 °F - 53.6 °F 42% 29.72 in - SSE 8.1 mph - N/A   Scattered Clouds
4:15 PM 77.0 °F - 55.4 °F 47% 29.73 in - South 6.9 mph 17.3 mph N/A   Clear
4:35 PM 77.0 °F - 55.4 °F 47% 29.74 in - SSE 10.4 mph - N/A   Clear
4:55 PM 77.0 °F - 57.2 °F 50% 29.74 in - SSE 4.6 mph - N/A   Clear
5:15 PM 77.0 °F - 57.2 °F 50% 29.74 in - SSE 6.9 mph - N/A   Scattered Clouds
5:35 PM 75.2 °F - 57.2 °F 53% 29.74 in - SE 6.9 mph - N/A   Scattered Clouds
5:55 PM 71.6 °F - 62.6 °F 73% 29.73 in - Calm Calm - 0.01 in   Scattered Clouds
6:15 PM 69.8 °F - 64.4 °F 83% 29.72 in - North 6.9 mph - N/A   Scattered Clouds
6:35 PM 69.8 °F - 60.8 °F 73% 29.76 in - Calm Calm - N/A   Mostly Cloudy
6:55 PM 69.8 °F - 60.8 °F 73% 29.76 in 4.0 mi South 11.5 mph 17.3 mph 0.02 in Rain Rain
7:15 PM 66.2 °F - 53.6 °F 64% 29.81 in - SSW 13.8 mph 19.6 mph 0.05 in Thunderstorm Thunderstorm
7:35 PM 64.4 °F - 55.4 °F 73% 29.81 in - WNW 5.8 mph - 0.05 in Thunderstorm Thunderstorm
7:55 PM 60.8 °F - 55.4 °F 82% 29.80 in - NNW 9.2 mph - 0.05 in   Mostly Cloudy
8:15 PM 60.8 °F - 55.4 °F 82% 29.80 in - North 4.6 mph - N/A   Scattered Clouds
8:35 PM 59.0 °F - 53.6 °F 82% 29.81 in - North 4.6 mph - N/A   Mostly Cloudy
8:55 PM 59.0 °F - 53.6 °F 82% 29.81 in - Calm Calm - N/A   Mostly Cloudy
9:15 PM 59.0 °F - 53.6 °F 82% 29.81 in - Calm Calm - N/A   Mostly Cloudy
9:35 PM 59.0 °F - 53.6 °F 82% 29.80 in - Calm Calm - N/A   Mostly Cloudy
9:55 PM 59.0 °F - 53.6 °F 82% 29.80 in - Calm Calm - N/A   Unknown
10:15 PM 59.0 °F - 53.6 °F 82% 29.81 in - Calm Calm - N/A   Overcast
10:35 PM 59.0 °F - 53.6 °F 82% 29.81 in - Calm Calm - N/A   Overcast
10:55 PM 59.0 °F - 53.6 °F 82% 29.81 in - Calm Calm - N/A   Overcast
11:15 PM 59.0 °F - 55.4 °F 88% 29.80 in - Calm Calm - N/A   Overcast
11:35 PM 59.0 °F - 55.4 °F 88% 29.78 in - Calm Calm - N/A   Unknown
11:55 PM 59.0 °F - 55.4 °F 88% 29.78 in - Calm Calm - N/A   Unknown